Time,TemperatureF,DewpointF,PressureIn,WindDirection,WindDirectionDegrees,WindSpeedMPH,WindSpeedGustMPH,Humidity,HourlyPrecipIn,Conditions,Clouds,dailyrainin,SoftwareType,DateUTC
2013-10-02 00:03:00,55.7,52.8,29.29,North,360,0.0,1.6,91,-99.99,,,-99.99,WSDL version 423,2013-10-02 04:03:00,
2013-10-02 00:08:00,55.3,52.8,29.29,North,11,0.0,1.6,91,-99.99,,,-99.99,WSDL version 423,2013-10-02 04:08:00,
2013-10-02 00:13:00,55.2,53.0,29.29,NNE,15,0.6,2.0,92,-99.99,,,-99.99,WSDL version 423,2013-10-02 04:13:00,
2013-10-02 00:18:00,55.0,53.2,29.29,NE,45,0.0,2.0,93,-99.99,,,-99.99,WSDL version 423,2013-10-02 04:18:00,
2013-10-02 00:23:00,54.9,53.0,29.26,NNE,31,0.0,0.0,93,-99.99,,,-99.99,WSDL version 423,2013-10-02 04:23:00,
2013-10-02 00:28:00,54.6,53.0,29.26,North,8,0.0,0.0,94,-99.99,,,-99.99,WSDL version 423,2013-10-02 04:28:00,
2013-10-02 00:33:00,54.5,53.3,29.26,SSW,203,0.0,0.0,96,-99.99,,,-99.99,WSDL version 423,2013-10-02 04:33:00,
2013-10-02 00:38:00,54.4,53.1,29.29,North,5,0.0,0.0,96,-99.99,,,-99.99,WSDL version 423,2013-10-02 04:38:00,
2013-10-02 00:43:00,54.1,52.8,29.29,East,90,0.0,0.9,96,-99.99,,,-99.99,WSDL version 423,2013-10-02 04:43:00,
2013-10-02 00:48:00,54.1,53.0,29.29,East,95,0.7,2.0,97,-99.99,,,-99.99,WSDL version 423,2013-10-02 04:48:00,
2013-10-02 00:53:00,54.2,53.4,29.26,SE,127,1.3,2.0,98,-99.99,,,-99.99,WSDL version 423,2013-10-02 04:53:00,
2013-10-02 00:58:00,54.4,53.7,29.26,ENE,74,0.0,2.0,98,-99.99,,,-99.99,WSDL version 423,2013-10-02 04:58:00,
2013-10-02 01:03:00,54.2,53.4,29.26,West,270,0.0,0.0,97,-99.99,,,-99.99,WSDL version 423,2013-10-02 05:03:00,
2013-10-02 01:08:00,54.0,53.3,29.26,SSW,203,0.0,0.0,98,-99.99,,,-99.99,WSDL version 423,2013-10-02 05:08:00,
2013-10-02 01:13:00,53.8,53.2,29.26,ESE,103,0.5,2.0,98,-99.99,,,-99.99,WSDL version 423,2013-10-02 05:13:00,
2013-10-02 01:18:00,53.7,53.1,29.26,SE,135,0.0,2.0,98,-99.99,,,-99.99,WSDL version 423,2013-10-02 05:18:00,
2013-10-02 01:23:00,53.5,52.9,29.26,East,95,0.0,0.0,98,-99.99,,,-99.99,WSDL version 423,2013-10-02 05:23:00,
2013-10-02 01:28:00,53.3,52.7,29.26,SE,135,0.0,0.0,98,-99.99,,,-99.99,WSDL version 423,2013-10-02 05:28:00,
2013-10-02 01:33:00,53.2,52.8,29.26,ESE,121,0.0,0.0,99,-99.99,,,-99.99,WSDL version 423,2013-10-02 05:33:00,
2013-10-02 01:38:00,53.1,52.5,29.26,NNW,343,0.0,0.0,98,-99.99,,,-99.99,WSDL version 423,2013-10-02 05:38:00,
2013-10-02 01:43:00,53.1,52.7,29.26,East,90,0.6,2.0,99,-99.99,,,-99.99,WSDL version 423,2013-10-02 05:43:00,
2013-10-02 01:48:00,53.1,52.8,29.26,East,90,0.0,2.0,99,-99.99,,,-99.99,WSDL version 423,2013-10-02 05:48:00,
2013-10-02 01:53:00,53.1,53.0,29.26,East,90,0.0,0.0,100,-99.99,,,-99.99,WSDL version 423,2013-10-02 05:53:00,
2013-10-02 01:58:00,53.2,53.2,29.26,NE,45,0.0,0.0,100,-99.99,,,-99.99,WSDL version 423,2013-10-02 05:58:00,
2013-10-02 02:03:00,53.1,53.1,29.26,NE,35,0.0,0.9,100,-99.99,,,-99.99,WSDL version 423,2013-10-02 06:03:00,
2013-10-02 02:08:00,53.2,53.2,29.23,NNE,23,0.0,0.9,100,-99.99,,,-99.99,WSDL version 423,2013-10-02 06:08:00,
2013-10-02 02:13:00,53.3,53.3,29.23,North,360,0.0,0.0,100,-99.99,,,-99.99,WSDL version 423,2013-10-02 06:13:00,
2013-10-02 02:18:00,53.6,53.6,29.23,NE,45,0.0,0.0,100,-99.99,,,-99.99,WSDL version 423,2013-10-02 06:18:00,
2013-10-02 02:23:00,53.7,53.7,29.23,NE,45,0.0,0.0,100,-99.99,,,-99.99,WSDL version 423,2013-10-02 06:23:00,
2013-10-02 02:28:00,53.6,53.6,29.23,NW,315,0.0,2.0,100,-99.99,,,-99.99,WSDL version 423,2013-10-02 06:28:00,
2013-10-02 02:33:00,53.7,53.7,29.23,SE,143,1.4,2.5,100,-99.99,,,-99.99,WSDL version 423,2013-10-02 06:33:00,
2013-10-02 02:38:00,53.8,53.7,29.23,East,82,0.6,2.5,100,-99.99,,,-99.99,WSDL version 423,2013-10-02 06:38:00,
2013-10-02 02:43:00,54.0,54.0,29.23,NW,309,0.0,2.0,100,-99.99,,,-99.99,WSDL version 423,2013-10-02 06:43:00,
2013-10-02 02:48:00,54.4,54.4,29.23,SSW,210,0.6,3.6,100,-99.99,,,-99.99,WSDL version 423,2013-10-02 06:48:00,
2013-10-02 02:53:00,54.9,54.9,29.23,SE,124,0.7,3.6,100,-99.99,,,-99.99,WSDL version 423,2013-10-02 06:53:00,
2013-10-02 02:58:00,55.3,55.3,29.23,South,180,0.0,4.3,100,-99.99,,,-99.99,WSDL version 423,2013-10-02 06:58:00,
2013-10-02 03:03:00,55.5,55.5,29.23,ESE,103,0.0,4.3,100,-99.99,,,-99.99,WSDL version 423,2013-10-02 07:03:00,
2013-10-02 03:08:00,55.9,55.9,29.23,NE,53,0.6,3.4,100,-99.99,,,-99.99,WSDL version 423,2013-10-02 07:08:00,
2013-10-02 03:13:00,56.0,56.0,29.23,North,3,0.4,2.9,100,-99.99,,,-99.99,WSDL version 423,2013-10-02 07:13:00,
2013-10-02 03:18:00,55.9,55.9,29.23,NNE,17,0.6,2.0,100,-99.99,,,-99.99,WSDL version 423,2013-10-02 07:18:00,
2013-10-02 03:23:00,56.0,56.0,29.23,SSE,168,1.2,2.5,100,-99.99,,,-99.99,WSDL version 423,2013-10-02 07:23:00,
2013-10-02 03:28:00,56.1,56.1,29.23,South,188,0.4,2.9,100,-99.99,,,-99.99,WSDL version 423,2013-10-02 07:28:00,
2013-10-02 03:33:00,56.2,56.2,29.23,SW,215,0.0,2.9,100,-99.99,,,-99.99,WSDL version 423,2013-10-02 07:33:00,
2013-10-02 03:38:00,56.3,56.3,29.23,South,186,0.0,2.2,100,-99.99,,,-99.99,WSDL version 423,2013-10-02 07:38:00,
2013-10-02 03:43:00,56.5,56.5,29.23,SE,124,0.4,2.2,100,-99.99,,,-99.99,WSDL version 423,2013-10-02 07:43:00,
2013-10-02 03:48:00,56.7,56.7,29.23,SSE,152,0.1,2.2,100,-99.99,,,-99.99,WSDL version 423,2013-10-02 07:48:00,
2013-10-02 03:53:00,56.7,56.7,29.23,ENE,68,0.0,2.0,100,-99.99,,,-99.99,WSDL version 423,2013-10-02 07:53:00,
2013-10-02 03:58:00,56.5,56.5,29.23,SSE,163,0.5,2.0,100,-99.99,,,-99.99,WSDL version 423,2013-10-02 07:58:00,
2013-10-02 04:03:00,56.7,56.7,29.23,SSE,155,0.0,2.0,100,-99.99,,,-99.99,WSDL version 423,2013-10-02 08:03:00,
2013-10-02 04:08:00,56.7,56.7,29.23,South,178,0.0,1.3,100,-99.99,,,-99.99,WSDL version 423,2013-10-02 08:08:00,
2013-10-02 04:13:00,56.7,56.7,29.23,ESE,110,0.0,1.3,100,-99.99,,,-99.99,WSDL version 423,2013-10-02 08:13:00,
2013-10-02 04:18:00,56.7,56.7,29.23,East,83,0.7,2.0,100,-99.99,,,-99.99,WSDL version 423,2013-10-02 08:18:00,
2013-10-02 04:23:00,56.7,56.7,29.23,North,360,0.0,2.0,100,-99.99,,,-99.99,WSDL version 423,2013-10-02 08:23:00,
2013-10-02 04:28:00,56.7,56.7,29.23,NNW,341,2.4,3.8,100,-99.99,,,-99.99,WSDL version 423,2013-10-02 08:28:00,
2013-10-02 04:33:00,56.6,56.6,29.23,NE,48,1.1,3.8,100,-99.99,,,-99.99,WSDL version 423,2013-10-02 08:33:00,
2013-10-02 04:38:00,56.7,56.7,29.23,NE,48,0.0,2.5,100,-99.99,,,-99.99,WSDL version 423,2013-10-02 08:38:00,
2013-10-02 04:43:00,56.8,56.8,29.23,ENE,76,0.0,2.0,100,-99.99,,,-99.99,WSDL version 423,2013-10-02 08:43:00,
2013-10-02 04:48:00,56.8,56.8,29.23,East,93,0.0,2.0,100,-99.99,,,-99.99,WSDL version 423,2013-10-02 08:48:00,
2013-10-02 04:53:00,56.8,56.8,29.23,North,360,0.0,1.6,100,-99.99,,,-99.99,WSDL version 423,2013-10-02 08:53:00,
2013-10-02 04:58:00,57.0,57.0,29.23,NNW,333,0.7,2.7,100,-99.99,,,-99.99,WSDL version 423,2013-10-02 08:58:00,
2013-10-02 05:03:00,57.2,57.2,29.23,ENE,77,0.0,2.7,100,-99.99,,,-99.99,WSDL version 423,2013-10-02 09:03:00,
2013-10-02 05:08:00,57.3,57.3,29.23,ENE,60,0.0,1.3,100,-99.99,,,-99.99,WSDL version 423,2013-10-02 09:08:00,
2013-10-02 05:13:00,57.5,57.5,29.23,South,180,0.0,2.5,100,-99.99,,,-99.99,WSDL version 423,2013-10-02 09:13:00,
2013-10-02 05:18:00,57.6,57.6,29.23,NNW,338,0.0,2.5,100,-99.99,,,-99.99,WSDL version 423,2013-10-02 09:18:00,
2013-10-02 05:23:00,57.7,57.7,29.23,WSW,245,0.6,2.2,100,-99.99,,,-99.99,WSDL version 423,2013-10-02 09:23:00,
2013-10-02 05:28:00,57.7,57.7,29.23,SSW,193,0.6,2.2,100,-99.99,,,-99.99,WSDL version 423,2013-10-02 09:28:00,
2013-10-02 05:33:00,58.0,58.0,29.23,SSW,210,0.0,2.0,100,-99.99,,,-99.99,WSDL version 423,2013-10-02 09:33:00,
2013-10-02 05:38:00,58.1,58.1,29.23,ENE,68,0.0,2.0,100,-99.99,,,-99.99,WSDL version 423,2013-10-02 09:38:00,
2013-10-02 05:43:00,58.1,58.1,29.23,North,360,0.0,2.0,100,-99.99,,,-99.99,WSDL version 423,2013-10-02 09:43:00,
2013-10-02 05:48:00,58.0,58.0,29.23,North,360,0.0,1.3,100,-99.99,,,-99.99,WSDL version 423,2013-10-02 09:48:00,
2013-10-02 05:53:00,58.0,58.0,29.23,SE,129,0.0,0.0,100,-99.99,,,-99.99,WSDL version 423,2013-10-02 09:53:00,
2013-10-02 05:58:00,57.9,57.9,29.23,SSE,154,0.0,0.0,100,-99.99,,,-99.99,WSDL version 423,2013-10-02 09:58:00,
2013-10-02 06:03:00,57.9,57.9,29.23,ESE,113,0.0,0.0,100,-99.99,,,-99.99,WSDL version 423,2013-10-02 10:03:00,
2013-10-02 06:08:00,57.9,57.9,29.23,ESE,110,0.0,0.0,100,-99.99,,,-99.99,WSDL version 423,2013-10-02 10:08:00,
2013-10-02 06:13:00,57.8,57.8,29.23,NE,56,0.0,0.0,100,-99.99,,,-99.99,WSDL version 423,2013-10-02 10:13:00,
2013-10-02 06:18:00,57.7,57.7,29.23,NNE,23,0.0,0.0,100,-99.99,,,-99.99,WSDL version 423,2013-10-02 10:18:00,
2013-10-02 06:23:00,57.8,57.8,29.23,East,90,0.0,0.0,100,-99.99,,,-99.99,WSDL version 423,2013-10-02 10:23:00,
2013-10-02 06:28:00,57.9,57.9,29.23,East,90,0.0,0.0,100,-99.99,,,-99.99,WSDL version 423,2013-10-02 10:28:00,
2013-10-02 06:33:00,57.9,57.9,29.23,ESE,113,0.0,0.0,100,-99.99,,,-99.99,WSDL version 423,2013-10-02 10:33:00,
2013-10-02 06:38:00,57.9,57.9,29.23,SE,135,0.0,0.0,100,-99.99,,,-99.99,WSDL version 423,2013-10-02 10:38:00,
2013-10-02 06:43:00,57.9,57.9,29.23,SE,135,0.0,0.0,100,-99.99,,,-99.99,WSDL version 423,2013-10-02 10:43:00,
2013-10-02 06:48:00,57.9,57.9,29.23,SE,135,0.0,0.0,100,-99.99,,,-99.99,WSDL version 423,2013-10-02 10:48:00,
2013-10-02 06:53:00,57.9,57.9,29.23,SSE,168,0.0,0.0,100,-99.99,,,-99.99,WSDL version 423,2013-10-02 10:53:00,
2013-10-02 06:58:00,57.9,57.9,29.23,SW,225,0.0,0.0,100,-99.99,,,-99.99,WSDL version 423,2013-10-02 10:58:00,
2013-10-02 07:03:00,57.9,57.9,29.23,SW,225,0.0,0.0,100,-99.99,,,-99.99,WSDL version 423,2013-10-02 11:03:00,
2013-10-02 07:08:00,58.0,58.0,29.23,SSW,203,0.0,0.0,100,-99.99,,,-99.99,WSDL version 423,2013-10-02 11:08:00,
2013-10-02 07:13:00,58.2,58.2,29.23,South,184,0.0,0.0,100,-99.99,,,-99.99,WSDL version 423,2013-10-02 11:13:00,
2013-10-02 07:18:00,58.4,58.4,29.23,SSW,203,0.0,0.0,100,-99.99,,,-99.99,WSDL version 423,2013-10-02 11:18:00,
2013-10-02 07:23:00,58.6,58.6,29.23,SSW,203,0.0,0.0,100,-99.99,,,-99.99,WSDL version 423,2013-10-02 11:23:00,
2013-10-02 07:28:00,58.8,58.8,29.23,South,188,0.0,0.0,100,-99.99,,,-99.99,WSDL version 423,2013-10-02 11:28:00,
2013-10-02 07:33:00,58.9,58.9,29.23,SW,225,0.0,0.0,100,-99.99,,,-99.99,WSDL version 423,2013-10-02 11:33:00,
2013-10-02 07:38:00,59.1,59.1,29.23,SW,214,0.0,1.6,100,-99.99,,,-99.99,WSDL version 423,2013-10-02 11:38:00,
2013-10-02 07:43:00,59.2,59.2,29.23,SW,225,0.0,1.6,100,-99.99,,,-99.99,WSDL version 423,2013-10-02 11:43:00,
2013-10-02 07:48:00,59.4,59.4,29.23,SSW,203,0.0,0.0,100,-99.99,,,-99.99,WSDL version 423,2013-10-02 11:48:00,
2013-10-02 07:53:00,59.5,59.5,29.23,SW,236,0.0,0.0,100,-99.99,,,-99.99,WSDL version 423,2013-10-02 11:53:00,
2013-10-02 07:58:00,59.7,59.7,29.23,North,0,0.0,0.0,100,-99.99,,,-99.99,WSDL version 423,2013-10-02 11:58:00,
2013-10-02 08:03:00,59.9,59.9,29.23,ESE,113,0.0,0.0,100,-99.99,,,-99.99,WSDL version 423,2013-10-02 12:03:00,
2013-10-02 08:08:00,60.0,60.0,29.23,West,270,0.0,0.0,100,-99.99,,,-99.99,WSDL version 423,2013-10-02 12:08:00,
2013-10-02 08:13:00,60.3,60.3,29.23,West,270,0.0,0.0,100,-99.99,,,-99.99,WSDL version 423,2013-10-02 12:13:00,
2013-10-02 08:18:00,60.6,60.6,29.23,WSW,248,0.0,0.0,100,-99.99,,,-99.99,WSDL version 423,2013-10-02 12:18:00,
2013-10-02 08:23:00,60.8,60.8,29.26,SW,225,0.0,0.0,100,-99.99,,,-99.99,WSDL version 423,2013-10-02 12:23:00,
2013-10-02 08:28:00,61.0,61.0,29.26,SW,225,0.0,0.0,100,-99.99,,,-99.99,WSDL version 423,2013-10-02 12:28:00,
2013-10-02 08:33:00,61.2,61.2,29.26,SW,225,0.0,0.0,100,-99.99,,,-99.99,WSDL version 423,2013-10-02 12:33:00,
2013-10-02 08:38:00,61.4,61.4,29.26,SW,225,0.0,0.0,100,-99.99,,,-99.99,WSDL version 423,2013-10-02 12:38:00,
2013-10-02 08:43:00,61.7,61.7,29.26,SSW,203,0.0,0.0,100,-99.99,,,-99.99,WSDL version 423,2013-10-02 12:43:00,
2013-10-02 08:48:00,62.1,62.1,29.26,North,0,0.0,0.0,100,-99.99,,,-99.99,WSDL version 423,2013-10-02 12:48:00,
2013-10-02 08:53:00,62.6,62.6,29.26,North,-999,-999.0,-999.0,100,-99.99,,,-99.99,WSDL version 423,2013-10-02 12:53:00,
2013-10-02 08:58:00,63.1,63.1,29.26,SSW,203,0.0,0.0,100,-99.99,,,-99.99,WSDL version 423,2013-10-02 12:58:00,
2013-10-02 09:03:00,63.8,63.8,29.26,North,-999,-999.0,-999.0,100,-99.99,,,-99.99,WSDL version 423,2013-10-02 13:03:00,
2013-10-02 09:08:00,64.2,64.2,29.26,SW,236,0.9,0.0,100,-99.99,,,-99.99,WSDL version 423,2013-10-02 13:08:00,
2013-10-02 09:13:00,64.8,64.8,29.26,SSW,195,0.7,2.2,100,-99.99,,,-99.99,WSDL version 423,2013-10-02 13:13:00,
2013-10-02 09:18:00,66.1,66.0,29.26,South,180,0.0,2.2,100,-99.99,,,-99.99,WSDL version 423,2013-10-02 13:18:00,
2013-10-02 09:23:00,66.9,66.0,29.26,North,-999,-999.0,-999.0,96,-99.99,,,-99.99,WSDL version 423,2013-10-02 13:23:00,
2013-10-02 09:28:00,67.9,65.8,29.26,SW,225,0.0,1.6,91,-99.99,,,-99.99,WSDL version 423,2013-10-02 13:28:00,
2013-10-02 09:33:00,68.2,63.0,29.26,SSW,203,2.8,4.3,78,-99.99,,,-99.99,WSDL version 423,2013-10-02 13:33:00,
2013-10-02 09:38:00,68.2,60.9,29.26,SW,225,1.9,4.3,78,-99.99,,,-99.99,WSDL version 423,2013-10-02 13:38:00,
2013-10-02 09:43:00,69.0,61.3,29.26,SW,218,2.3,3.8,75,-99.99,,,-99.99,WSDL version 423,2013-10-02 13:43:00,
2013-10-02 09:48:00,70.1,61.3,29.26,SW,214,1.6,2.9,72,-99.99,,,-99.99,WSDL version 423,2013-10-02 13:48:00,
2013-10-02 09:53:00,70.8,60.7,29.26,SW,218,1.0,3.8,70,-99.99,,,-99.99,WSDL version 423,2013-10-02 13:53:00,
2013-10-02 09:58:00,71.5,60.7,29.26,North,0,0.0,3.8,67,-99.99,,,-99.99,WSDL version 423,2013-10-02 13:58:00,
2013-10-02 10:03:00,72.0,60.0,29.26,WNW,293,2.0,3.6,64,-99.99,,,-99.99,WSDL version 423,2013-10-02 14:03:00,
2013-10-02 10:08:00,72.0,56.3,29.26,SSW,203,2.9,3.8,56,-99.99,,,-99.99,WSDL version 423,2013-10-02 14:08:00,
2013-10-02 10:13:00,72.1,54.7,29.26,WSW,254,2.2,6.0,50,-99.99,,,-99.99,WSDL version 423,2013-10-02 14:13:00,
2013-10-02 10:18:00,72.9,56.3,29.26,SW,233,0.0,6.0,57,-99.99,,,-99.99,WSDL version 423,2013-10-02 14:18:00,
2013-10-02 10:23:00,73.7,56.1,29.26,SW,225,1.7,3.1,53,-99.99,,,-99.99,WSDL version 423,2013-10-02 14:23:00,
2013-10-02 10:28:00,74.0,54.4,29.26,SW,233,1.6,3.6,49,-99.99,,,-99.99,WSDL version 423,2013-10-02 14:28:00,
2013-10-02 10:33:00,74.5,52.7,29.26,SW,229,4.1,4.7,46,-99.99,,,-99.99,WSDL version 423,2013-10-02 14:33:00,
2013-10-02 10:38:00,75.1,53.0,29.26,SSW,203,1.5,4.7,45,-99.99,,,-99.99,WSDL version 423,2013-10-02 14:38:00,
2013-10-02 10:43:00,75.8,53.7,29.26,SW,214,2.2,2.9,44,-99.99,,,-99.99,WSDL version 423,2013-10-02 14:43:00,
2013-10-02 10:48:00,76.0,52.0,29.26,NNW,343,1.3,3.1,43,-99.99,,,-99.99,WSDL version 423,2013-10-02 14:48:00,
2013-10-02 10:53:00,76.5,51.9,29.26,SW,218,2.2,3.1,42,-99.99,,,-99.99,WSDL version 423,2013-10-02 14:53:00,
2013-10-02 10:58:00,76.8,50.1,29.26,SW,214,2.5,3.6,37,-99.99,,,-99.99,WSDL version 423,2013-10-02 14:58:00,
2013-10-02 11:03:00,76.6,47.5,29.26,SW,225,2.6,4.3,36,-99.99,,,-99.99,WSDL version 423,2013-10-02 15:03:00,
2013-10-02 11:08:00,77.1,47.3,29.26,WSW,242,2.6,4.3,34,-99.99,,,-99.99,WSDL version 423,2013-10-02 15:08:00,
2013-10-02 11:13:00,77.7,47.7,29.26,SSW,203,1.9,3.8,35,-99.99,,,-99.99,WSDL version 423,2013-10-02 15:13:00,
2013-10-02 11:18:00,77.8,45.1,29.26,SSW,210,2.5,5.4,31,-99.99,,,-99.99,WSDL version 423,2013-10-02 15:18:00,
2013-10-02 11:23:00,78.0,44.9,29.26,SSW,207,2.5,5.4,32,-99.99,,,-99.99,WSDL version 423,2013-10-02 15:23:00,
2013-10-02 11:28:00,78.3,45.9,29.26,NNW,338,1.5,3.4,31,-99.99,,,-99.99,WSDL version 423,2013-10-02 15:28:00,
2013-10-02 11:33:00,78.6,44.6,29.26,WSW,252,1.6,3.4,30,-99.99,,,-99.99,WSDL version 423,2013-10-02 15:33:00,
2013-10-02 11:38:00,78.8,42.2,29.26,SW,222,3.5,5.8,27,-99.99,,,-99.99,WSDL version 423,2013-10-02 15:38:00,
2013-10-02 11:43:00,78.7,39.2,29.26,SW,222,2.1,5.8,24,-99.99,,,-99.99,WSDL version 423,2013-10-02 15:43:00,